"Pseudo-MPEC" for ZTF0FS0 = ZTF0FXx

Created 2020 Oct 13 0:19:49 UT using Find_Orb

Click here for an explanation of pseudo-MPECs

 
 Astrometry: 
     ZTF0FS0* C2020 10 07.34950201 25 29.24 -03 13 22.8    ~A7C7 16.68gUNEOCPI41
     ZTF0FS0  C2020 10 07.34985001 25 33.32 -03 12 10.0    ~A7C7 16.68gUNEOCPI41
     ZTF0FS0  C2020 10 07.35090301 25 46.12 -03 08 23.7    ~A7C7 16.69gUNEOCPI41
     ZTF0FS0  C2020 10 07.35125001 25 50.14 -03 07 10.5    ~A7C7 16.69gUNEOCPI41
     ZTF0FXx* C2020 10 12.28751201 54 38.72 +01 20 20.8    ~ACNi 16.71gUNEOCPI41
     ZTF0FXx  C2020 10 12.28785901 54 43.14 +01 21 34.2    ~ACNi 16.71gUNEOCPI41
     ZTF0FXx  C2020 10 12.28843801 54 50.59 +01 23 39.3    ~ACNi 16.66gUNEOCPI41
     ZTF0FXx  C2020 10 12.28878501 54 54.87 +01 24 53.4    ~ACNi 16.66gUNEOCPI41
     ZTF0FXx  C2020 10 12.33130802 03 56.42 +03 56 57.3    ~ACNi 16.25RUNEOCPI41
     ZTF0FXx  C2020 10 12.33165502 04 00.91 +03 58 12.9    ~ACNi 16.25RUNEOCPI41

Station data:
(I41) Palomar Mountain--ZTF  (N33.357340 W116.859780)  US/California. 1.2-m
   f/2.44 Oschin Schmidt + CCD.

Orbital elements:  ZTF0FS0 = ZTF0FXx
   Perigee 2020 Oct 11.837904 +/- 0.000198644 TT = 20:06:34.9 (JD 2459134.337904)
Epoch 2020 Oct 12.0 TT; AMR 66.939 +/- 4.49094 m2/kg         Find_Orb
M  71.694892411 +/- 0.08442         (J2000 equator)
n 442.299765889 +/- 0.0949733       Peri.  183.294687 +/- 0.017949
a 36823.55383 +/- 5.27123           Node    21.080402 +/- 0.010318
e   0.76303770 +/- 0.000192047      Incl.   36.333685 +/- 0.0035154
P1172.03m/0.814d           H 32.8   G  0.15   U 11.2
q 8725.793667 +/- 8.06494    Q 64921.31399 +/- 6.01245
From 10 observations 2020 Oct. 7-12; mean residual 1".625
Residuals in arcseconds: 
201007 I41 1.65- 1.94-    201012 I41 1.81- 1.33-    201012 I41 .184+ .088-
201007 I41 2.27- 2.45-    201012 I41 .796- 1.35-    201012 I41 .438- .230-
201007 I41 2.61+ 2.08+    201012 I41 2.01+ 1.22+
201007 I41 1.25+ 2.21+    201012 I41 .914+ 1.87+

Residuals in seconds along-track and arcseconds cross-track: 
201007 I41 -.80s .013-    201012 I41 -.67s .473-    201012 I41 +17ms .196+
201007 I41 -1.0s .163-    201012 I41 -.47s .300+    201012 I41 -.14s .173-
201007 I41 +1.0s .659+    201012 I41 +.69s .693+
201007 I41 +.78s .472-    201012 I41 +.61s .557-

Ephemerides (geocentric):
Date (UTC) HH   RA              Dec         delta   r     elong  mag " sig PA
---- --------  --------------  -----------  -----  ------ -----  --- --------
2020 10 12 00  00 04 29.675   -14 05 23.63    47557 0.9983 153.1 16.5  262  63
2020 10 12 01  00 25 54.953   -10 30 06.29    53301 0.9984 159.0 16.6  275  60
2020 10 12 02  00 43 11.750   -07 28 30.87    57747 0.9984 163.7 16.6  280  58
2020 10 12 03  00 58 05.491   -04 47 46.30    61057 0.9984 167.4 16.6  281  56
2020 10 12 04  01 11 34.521   -02 20 02.47    63331 0.9984 170.2 16.6  280  55
2020 10 12 05  01 24 16.262   +00 00 01.85    64632 0.9984 171.8 16.5  277  54
2020 10 12 06  01 36 38.484   +02 16 33.63    64993 0.9984 171.7 16.5  274  53
2020 10 12 07  01 49 05.334   +04 33 08.81    64424 0.9984 170.0 16.6  269  52
2020 10 12 08  02 02 01.664   +06 53 24.02    62909 0.9984 167.3 16.6  264  51
2020 10 12 09  02 15 57.654   +09 21 28.64    60410 0.9983 163.8 16.7  258  51
2020 10 12 10  02 31 35.922   +12 02 48.78    56857 0.9983 159.7 16.7  252  50
2020 10 12 11  02 50 05.706   +15 05 23.46    52137 0.9982 154.6 16.7  244  49
2020 10 12 12  03 13 37.466   +18 42 18.15    46071 0.9982 148.3 16.6  236  49
2020 10 12 13  03 47 08.257   +23 17 26.86    38371 0.9981 139.5 16.4  227  49
2020 10 12 14  04 45 47.475   +29 36 11.74    28540 0.9980 125.3 16.2  225  52
2020 10 12 15  07 30 01.053   +36 24 49.18    15861 0.9979  90.9 16.0  320  77
2020 10 12 16  17 05 54.316   -31 16 42.31    10855 0.9978  59.2 17?? 1156 113
2020 10 12 17  21 57 06.039   -30 05 13.44    24181 0.9979 119.9 16.0  623  74
2020 10 12 18  23 12 18.332   -21 51 41.46    34999 0.9980 138.3 16.3  504  66
2020 10 12 19  23 50 18.989   -16 21 16.81    43420 0.9981 148.5 16.4  454  62
2020 10 12 20  00 15 38.887   -12 14 28.24    50053 0.9981 155.5 16.5  425  59
2020 10 12 21  00 35 01.179   -08 54 02.94    55249 0.9981 160.9 16.6  406  58
2020 10 12 22  00 51 07.540   -06 01 31.18    59222 0.9982 165.2 16.6  392  56
2020 10 12 23  01 05 18.936   -03 26 24.55    62105 0.9982 168.7 16.6  381  55
2020 10 13 00  01 18 23.035   -01 02 02.52    63981 0.9982 171.1 16.5  373  54
2020 10 13 01  01 30 52.270   +01 16 21.10    64901 0.9982 172.2 16.5  367  53
2020 10 13 02  01 43 12.286   +03 32 37.23    64887 0.9982 171.5 16.5  363  53
2020 10 13 03  01 55 46.978   +05 50 18.72    63940 0.9981 169.4 16.6  361  52
2020 10 13 04  02 09 02.718   +08 13 10.91    62035 0.9981 166.3 16.7  361  52
2020 10 13 05  02 23 33.649   +10 45 46.77    59121 0.9981 162.6 16.7  364  52
2020 10 13 06  02 40 10.869   +13 34 20.08    55114 0.9980 158.1 16.7  373  52
2020 10 13 07  03 00 22.354   +16 48 23.75    49878 0.9980 152.6 16.6  393  52
2020 10 13 08  03 27 05.744   +20 44 16.82    43197 0.9979 145.5 16.5  434  54
2020 10 13 09  04 07 48.449   +25 52 41.97    34714 0.9978 135.1 16.3  538  58
2020 10 13 10  05 29 49.353   +33 02 14.15    23809 0.9977 116.2 16.0  904  69
2020 10 13 11  10 33 45.453   +26 36 26.52    10499 0.9976  52.1 17?? 4155 115
2020 10 13 12  20 07 26.367   -36 01 01.90    16288 0.9976  95.7 15.9 2315  85
2020 10 13 13  22 38 00.341   -26 06 36.17    28886 0.9977 128.8 16.1 1031  67
2020 10 13 14  23 32 01.534   -19 07 58.93    38646 0.9978 142.8 16.3  743  62
2020 10 13 15  00 03 25.669   -14 16 03.88    46292 0.9979 151.4 16.5  623  59
2020 10 13 16  00 25 46.716   -10 30 00.86    52314 0.9979 157.7 16.6  559  57
2020 10 13 17  00 43 32.648   -07 21 49.31    56998 0.9979 162.6 16.6  519  56
2020 10 13 18  00 58 42.371   -04 36 50.90    60519 0.9979 166.6 16.6  493  55
2020 10 13 19  01 12 19.741   -02 06 24.50    62989 0.9980 169.8 16.6  475  54
2020 10 13 20  01 25 04.661   +00 15 16.95    64476 0.9980 171.9 16.5  463  54
2020 10 13 21  01 37 25.967   +02 32 33.09    65018 0.9979 172.4 16.5  456  53
2020 10 13 22  01 49 48.020   +04 49 04.19    64630 0.9979 171.1 16.6  453  53
2020 10 13 23  02 02 35.172   +07 08 24.45    63301 0.9979 168.6 16.6  455  52
2020 10 14 00  02 16 16.181   +09 34 33.02    60998 0.9979 165.3 16.7  463  52
2020 10 14 01  02 31 30.627   +12 12 34.07    57657 0.9978 161.2 16.7  481  52
2020 10 14 02  02 49 21.207   +15 09 43.01    53175 0.9978 156.4 16.6  513  53
2020 10 14 03  03 11 42.608   +18 37 35.53    47389 0.9977 150.4 16.6  574  54
2020 10 14 04  03 42 45.305   +22 56 47.68    40037 0.9976 142.2 16.4  700  57
2020 10 14 05  04 34 23.234   +28 46 12.01    30672 0.9976 129.5 16.2 1029  63
2020 10 14 06  06 41 37.493   +36 08 49.85    18566 0.9974 102.1 16.0 2482  82
2020 10 14 07  15 01 42.520   -17 07 49.01     9035 0.9973  26.8 20?? 182' 123
2020 10 14 08  21 36 17.459   -31 52 15.50    21729 0.9974 113.6 15.9 2346  73
2020 10 14 09  23 06 31.498   -22 41 26.69    33116 0.9975 135.3 16.2 1238  63
2020 10 14 10  23 48 14.123   -16 42 02.26    41949 0.9976 146.5 16.4  908  59
2020 10 14 11  00 15 01.480   -12 20 06.06    48898 0.9976 154.0 16.5  757  57
2020 10 14 12  00 35 06.526   -08 50 50.13    54356 0.9977 159.7 16.6  673  56
2020 10 14 13  00 51 35.998   -05 52 45.98    58555 0.9977 164.2 16.6  621  55
2020 10 14 14  01 06 00.105   -03 14 05.42    61643 0.9977 168.0 16.6  587  54
2020 10 14 15  01 19 10.497   -00 47 28.84    63711 0.9977 170.8 16.5  564  54
2020 10 14 16  01 31 41.405   +01 32 09.79    64815 0.9977 172.5 16.5  551  53
2020 10 14 17  01 43 59.164   +03 48 50.47    64983 0.9977 172.4 16.5  544  53
2020 10 14 18  01 56 27.601   +06 06 07.67    64219 0.9977 170.6 16.6  545  53
2020 10 14 19  02 09 32.256   +08 27 41.44    62505 0.9977 167.7 16.6  554  53
2020 10 14 20  02 23 45.320   +10 57 50.49    59794 0.9976 164.1 16.7  574  53
2020 10 14 21  02 39 53.766   +13 42 19.65    56009 0.9976 159.8 16.7  611  53
2020 10 14 22  02 59 16.353   +16 49 44.03    51028 0.9975 154.5 16.6  677  54
2020 10 14 23  03 24 26.894   +20 34 20.68    44652 0.9975 147.7 16.5  802  56
2020 10 15 00  04 01 33.585   +25 22 22.16    36558 0.9974 138.2 16.3 1074  60
2020 10 15 01  05 11 03.770   +31 58 48.73    26190 0.9973 121.9 16.1 1886  69
2020 10 15 02  08 55 51.042   +34 26 31.91    12982 0.9972  75.9 16.3 7172 103
2020 10 15 03  19 02 14.352   -36 35 01.06    13543 0.9972  81.1 16.1 7512  94
2020 10 15 04  22 26 17.546   -27 28 35.75    26669 0.9973 124.4 16.1 2258  66
2020 10 15 05  23 28 10.918   -19 43 58.39    36931 0.9973 140.3 16.3 1359  60
2020 10 15 06  00 02 02.765   -14 29 47.85    44946 0.9974 149.6 16.5 1031  58
2020 10 15 07  00 25 28.724   -10 31 33.69    51260 0.9974 156.3 16.6  868  56
2020 10 15 08  00 43 48.212   -07 16 00.91    56191 0.9975 161.5 16.6  773  55
2020 10 15 09  00 59 16.525   -04 26 21.89    59930 0.9975 165.7 16.6  714  54
2020 10 15 10  01 13 04.039   -01 52 55.32    62600 0.9975 169.2 16.6  675  54
2020 10 15 11  01 25 53.563   +00 30 36.01    64276 0.9975 171.8 16.5  651  53
2020 10 15 12  01 38 15.221   +02 48 46.80    65002 0.9975 172.9 16.5  638  53
2020 10 15 13  01 50 33.747   +05 05 23.28    64797 0.9975 172.2 16.5  634  53
2020 10 15 14  02 03 13.138   +07 23 58.62    63655 0.9975 169.9 16.6  641  53
2020 10 15 15  02 16 40.940   +09 48 23.50    61547 0.9974 166.7 16.6  660  53
2020 10 15 16  02 31 34.091   +12 23 22.97    58417 0.9974 162.8 16.6  697  53
2020 10 15 17  02 48 49.635   +15 15 34.37    54170 0.9973 158.1 16.6  761  54
2020 10 15 18  03 10 08.992   +18 35 16.25    48657 0.9973 152.3 16.6  876  55
2020 10 15 19  03 39 05.220   +22 40 17.96    41641 0.9972 144.7 16.4 1101  58
2020 10 15 20  04 25 08.017   +28 03 46.48    32720 0.9971 133.2 16.2 1636  63
2020 10 15 21  06 07 02.417   +35 15 22.55    21209 0.9970 110.7 16.0 3609  78
2020 10 15 22  12 49 02.520   +06 19 56.15     8822 0.9969  17.5 23?? 346' 126
2020 10 15 23  21 06 58.327   -33 54 22.27    19118 0.9970 105.6 15.9 5113  76
2020 10 16 00  22 59 14.339   -23 41 39.11    31108 0.9971 131.9 16.2 2176  62
2020 10 16 01  23 45 36.875   -17 07 40.79    40383 0.9971 144.3 16.4 1438  58
2020 10 16 02  00 14 08.272   -12 28 18.54    47666 0.9972 152.4 16.5 1127  57
2020 10 16 03  00 35 03.059   -08 49 04.46    53396 0.9972 158.4 16.6  961  55